Wind_Speed
27 27 27 27 27 28 28 28 29 29 29 29 29 29 29 29 30 30 30 30 30 30 29 29 29 29 29 28 28 28 29 29 29 29 29 29 30 30 30 30 30 31 31
25 25 25 25 25 26 26 27 28 27 27 27 27 27 28 28 28 29 29 29 29 28 28 28 29 29 28 28 27 28 28 28 28 28 28 28 28 29 29 29 29 29 29
25 25 24 24 24 24 25 25 25 25 24 25 25 25 26 26 26 26 26 26 27 27 27 27 27 27 27 26 26 26 26 26 26 26 26 26 27 27 28 27 27 27 27
23 23 23 22 22 22 23 23 23 22 22 22 22 22 22 23 23 23 23 23 23 24 24 24 24 23 23 23 23 24 23 23 23 23 24 24 24 25 25 25 24 24 24
21 21 21 21 20 20 20 19 19 18 18 18 18 19 19 19 19 19 19 20 20 20 20 20 20 20 20 20 20 20 20 20 20 20 20 20 20 20 21 21 21 21 21
20 19 18 18 18 17 17 16 16 16 16 16 15 16 16 16 17 17 17 17 16 16 16 16 16 16 15 16 16 17 17 17 17 17 17 17 17 17 17 17 18 18 18
16 15 15 15 15 15 15 14 14 14 14 14 14 14 14 15 14 14 14 14 13 12 12 11 11 11 12 12 13 13 13 14 14 14 14 14 14 14 15 15 15 15 15
14 14 14 14 14 14 13 12 12 12 12 13 12 12 13 12 11 11 11 10 9 9 8 8 8 8 8 8 9 9 9 10 11 11 11 11 11 12 11 11 12 12 12
13 13 13 13 13 12 12 10 9 10 11 10 11 11 10 9 8 8 8 7 7 6 6 6 6 6 5 5 5 5 6 7 8 8 9 9 8 8 8 8 8 9 9
11 11 11 11 11 11 10 8 8 8 9 9 10 9 9 8 7 6 6 6 6 5 4 4 4 3 3 2 2 2 3 3 4 5 5 5 5 6 6 6 7 8 8
9 9 9 10 10 9 7 6 6 7 7 8 8 8 8 6 5 6 5 5 6 6 6 5 4 4 3 2 2 1 1 0 0 1 2 2 2 3 3 4 5 6 7
7 7 7 8 7 6 6 6 6 7 7 6 7 7 7 6 6 6 6 7 7 8 8 8 7 7 7 6 5 5 4 4 3 3 2 2 1 1 1 2 3 5 6
5 6 6 6 6 5 5 6 6 6 6 6 6 7 8 8 8 8 8 9 9 10 10 10 10 9 9 8 7 6 6 6 6 4 4 3 3 2 2 2 3 4 6
4 5 5 6 7 7 6 6 6 6 6 6 6 7 8 9 9 9 9 9 10 11 12 12 11 11 10 9 9 8 7 7 7 6 6 5 5 5 4 4 4 5 7
4 5 6 6 7 7 7 7 7 7 7 7 7 7 8 9 9 10 10 10 10 11 11 12 12 12 11 10 10 10 9 9 8 8 8 8 7 6 6 6 7 7 8
4 5 5 6 7 8 8 9 9 8 8 8 8 9 9 10 10 10 11 11 11 11 11 11 11 11 11 11 10 10 9 9 9 9 9 8 7 7 7 7 8 9 10
5 5 6 6 7 8 8 9 9 9 10 10 10 10 10 10 10 10 11 11 11 11 11 11 11 10 10 10 10 11 11 11 10 10 9 8 8 8 8 9 10 11 12
5 6 6 6 7 7 8 9 9 10 10 10 10 10 10 10 11 11 12 11 12 12 12 12 12 12 12 12 12 11 11 11 10 10 10 10 10 10 10 11 11 12 13
6 5 6 6 6 7 7 8 9 9 9 9 9 9 9 9 10 10 11 11 11 11 11 11 12 12 12 12 12 12 11 11 11 10 10 11 11 11 12 12 13 14 15
6 6 5 5 6 7 7 7 7 7 7 7 8 8 8 9 9 9 8 9 9 9 10 10 10 10 11 11 11 11 11 11 11 10 11 11 12 13 13 14 15 16 18
5 5 5 5 5 6 6 6 6 6 6 6 6 6 7 7 7 7 7 7 7 8 8 8 8 9 9 9 9 9 10 10 10 10 11 12 13 14 15 16 17 19 20
4 4 5 5 5 4 4 4 4 4 4 4 4 5 5 5 5 5 6 6 6 6 6 7 7 7 7 8 8 9 9 10 10 11 12 13 14 16 17 18 20 21 22
4 4 3 3 3 2 2 2 2 2 2 2 2 3 2 3 3 3 4 5 5 5 5 6 7 7 7 8 9 9 10 11 12 13 14 15 16 17 19 21 22 23 25
3 3 3 2 2 1 1 1 1 1 1 1 1 1 1 1 2 2 3 4 4 5 5 6 6 7 8 9 10 10 11 12 13 14 15 16 18 19 21 22 24 25 27
2 2 2 2 1 1 1 1 2 2 2 2 3 3 3 3 3 4 4 5 5 6 6 7 8 9 9 10 11 12 12 13 15 16 17 19 20 21 23 24 26 27 29
4 4 3 3 3 4 4 4 4 4 4 4 4 5 5 6 6 6 7 7 8 8 9 10 10 11 11 12 13 14 15 16 17 18 20 21 22 24 25 27 28 29 31
Wind_Direction
291 291 289 288 287 286 286 286 285 284 283 283 282 282 282 282 281 281 281 280 280 279 277 275 274 273 272 270 268 267 266 265 265 265 265 264 264 264 265 265 265 265 267
294 294 294 292 293 293 292 291 290 289 288 286 285 284 284 284 283 282 281 280 279 279 278 276 275 274 272 270 268 267 265 265 264 264 265 266 266 266 265 264 263 265 267
294 294 296 296 295 294 295 295 294 292 290 289 289 286 285 285 284 283 282 280 279 279 279 277 275 274 272 269 267 266 265 266 265 265 265 267 268 267 264 263 264 265 267
295 296 296 296 295 296 298 298 297 294 293 292 291 290 289 288 286 285 284 283 281 280 279 277 276 274 271 267 266 265 265 265 265 265 266 267 267 267 264 264 266 267 267
297 298 298 298 298 300 300 300 300 298 297 298 297 295 294 293 291 290 289 287 285 282 279 278 277 275 272 269 266 265 265 264 265 266 266 265 265 265 265 266 267 267 267
296 298 300 302 302 302 301 302 305 306 304 302 301 302 302 301 300 299 296 294 290 286 282 279 279 277 273 270 266 265 264 261 262 264 264 264 266 266 266 265 264 265 267
297 301 305 305 306 305 304 306 308 310 307 304 305 308 309 309 307 305 303 301 295 292 288 282 282 280 275 270 266 264 263 260 260 262 261 261 261 261 261 261 263 267 271
300 302 304 307 307 305 304 307 308 308 309 311 314 315 316 313 310 312 315 312 302 302 296 288 285 281 278 272 268 264 261 257 259 258 254 254 254 255 256 257 261 266 270
301 305 307 312 313 311 310 310 311 314 317 319 320 324 326 323 323 323 327 328 323 320 313 304 297 295 290 281 269 263 258 254 254 251 249 247 250 252 254 256 262 266 270
301 304 307 313 319 321 320 321 321 323 325 326 328 330 334 334 337 338 343 347 352 352 344 337 332 323 318 302 276 264 258 257 251 250 248 246 246 252 252 255 263 270 276
311 317 317 319 322 325 328 332 334 335 336 338 338 341 347 350 359 4 2 11 19 20 19 23 29 34 44 58 80 101 127 119 153 197 212 221 218 233 246 256 266 277 283
329 330 331 333 333 338 348 352 353 351 348 355 4 10 18 26 30 33 38 39 40 45 47 48 57 66 72 76 85 88 86 91 85 97 101 111 137 199 258 281 289 292 294
344 349 349 355 2 6 7 10 12 15 20 24 32 35 38 43 44 50 52 55 58 60 58 58 66 72 75 73 77 83 84 82 79 79 87 87 76 64 41 2 333 320 309
6 13 15 18 22 27 28 27 28 36 43 49 53 52 51 54 57 61 65 68 65 63 64 66 67 67 68 67 69 76 82 82 79 79 79 78 74 66 52 29 3 345 334
37 32 33 37 43 43 42 44 49 54 58 63 62 58 60 63 67 71 74 70 67 67 67 68 68 67 66 69 69 71 72 71 72 71 69 66 61 55 45 32 18 5 353
45 44 52 57 54 52 49 52 58 64 68 67 66 67 69 72 75 73 73 73 72 70 69 68 67 67 68 69 69 70 71 69 65 66 64 60 50 37 26 15 5 357 351
60 63 66 63 57 51 51 55 61 67 72 75 75 76 80 79 79 78 76 75 72 70 69 68 66 64 64 64 64 65 65 63 59 58 53 47 38 29 20 10 2 355 350
60 64 68 67 63 60 61 66 70 71 72 73 76 79 80 78 78 77 77 75 73 69 68 68 67 65 63 61 60 59 57 55 52 47 40 35 28 21 14 7 360 354 351
71 71 71 70 69 69 70 73 75 74 76 76 75 76 77 75 75 74 73 71 69 66 65 65 65 63 61 58 56 55 51 48 44 38 32 26 21 15 9 2 357 352 349
67 69 71 73 76 78 78 78 77 76 78 79 76 75 75 74 75 72 68 66 65 62 61 60 59 57 53 50 49 45 41 38 33 27 22 17 12 7 2 358 353 350 347
59 61 66 75 81 84 84 81 79 77 76 77 77 74 72 73 72 66 60 58 57 55 53 51 50 47 43 40 36 31 26 21 16 11 7 3 0 357 354 351 348 346 345
60 62 68 77 84 86 85 85 84 79 78 75 72 69 70 69 66 62 57 54 52 48 43 39 36 34 29 23 18 13 9 5 1 358 356 354 352 349 348 346 344 342 341
63 67 71 72 73 74 75 80 83 80 78 72 63 60 58 53 55 51 44 37 33 29 25 25 22 16 12 7 3 -0 357 354 351 349 347 345 344 342 341 340 339 338 337
63 66 63 59 57 54 50 47 26 358 348 357 357 360 3 360 1 8 6 5 9 6 1 359 358 356 353 351 350 348 348 346 344 342 340 339 338 337 337 337 336 335 335
23 17 4 353 345 333 321 321 319 311 304 307 310 307 303 304 306 313 322 328 330 329 328 329 333 335 336 337 337 337 337 336 335 334 334 334 334 334 334 333 333 333 333
330 326 318 311 306 302 296 293 295 295 291 290 294 297 293 291 293 296 301 307 311 312 312 313 315 318 320 323 325 326 327 328 328 328 328 329 330 330 330 330 330 330 330
Height
5792 5789 5787 5785 5783 5781 5779 5777 5775 5773 5771 5770 5768 5767 5766 5765 5763 5762 5761 5759 5758 5757 5756 5756 5755 5755 5754 5754 5754 5754 5755 5755 5756 5756 5756 5756 5757 5758 5758 5759 5759 5760 5761
5785 5783 5780 5778 5776 5774 5771 5769 5767 5765 5763 5762 5761 5759 5758 5757 5755 5754 5752 5751 5750 5749 5748 5748 5747 5746 5746 5746 5746 5746 5747 5747 5748 5749 5749 5749 5750 5750 5751 5752 5752 5753 5753
5780 5777 5775 5772 5770 5767 5765 5763 5760 5758 5757 5755 5754 5752 5751 5749 5747 5746 5745 5743 5742 5741 5740 5739 5739 5738 5738 5738 5738 5739 5740 5740 5741 5741 5742 5742 5743 5743 5744 5745 5745 5746 5746
5774 5772 5769 5767 5764 5762 5759 5757 5755 5753 5751 5749 5747 5745 5744 5742 5741 5739 5738 5736 5735 5734 5733 5732 5731 5731 5731 5731 5731 5732 5732 5733 5734 5735 5735 5736 5736 5737 5738 5739 5739 5740 5740
5769 5767 5764 5761 5759 5757 5754 5752 5750 5748 5746 5744 5742 5740 5738 5736 5735 5733 5732 5730 5729 5728 5727 5726 5725 5725 5724 5725 5725 5725 5726 5727 5728 5728 5729 5730 5731 5731 5732 5733 5733 5734 5735
5765 5762 5759 5757 5754 5752 5750 5748 5746 5744 5742 5740 5738 5736 5734 5732 5730 5729 5727 5725 5724 5722 5721 5720 5720 5719 5719 5719 5719 5720 5720 5721 5722 5723 5724 5725 5726 5726 5727 5728 5728 5729 5730
5760 5758 5755 5753 5751 5749 5747 5745 5743 5741 5739 5737 5735 5733 5731 5729 5727 5725 5723 5721 5719 5718 5717 5716 5715 5715 5714 5714 5714 5715 5715 5716 5718 5719 5720 5720 5721 5722 5723 5723 5724 5725 5725
5757 5754 5752 5750 5748 5746 5744 5742 5740 5739 5737 5735 5733 5730 5728 5726 5724 5722 5720 5718 5716 5715 5714 5713 5712 5712 5711 5711 5711 5711 5712 5713 5714 5715 5716 5717 5718 5718 5719 5720 5720 5721 5721
5754 5752 5750 5748 5745 5743 5741 5740 5738 5736 5734 5733 5731 5728 5726 5724 5722 5720 5718 5717 5715 5713 5712 5711 5710 5710 5709 5709 5709 5709 5710 5710 5711 5711 5712 5713 5714 5715 5715 5716 5717 5718 5718
5751 5749 5747 5745 5743 5742 5740 5738 5736 5735 5733 5731 5729 5727 5725 5723 5721 5719 5718 5716 5714 5713 5712 5710 5709 5709 5708 5708 5708 5708 5708 5708 5709 5709 5710 5711 5712 5712 5713 5714 5715 5716 5716
5748 5747 5745 5744 5742 5740 5739 5737 5736 5734 5732 5730 5728 5726 5724 5722 5721 5719 5717 5716 5714 5713 5711 5710 5709 5708 5708 5708 5708 5708 5708 5708 5708 5708 5709 5710 5710 5711 5712 5713 5713 5713 5714
5747 5746 5744 5743 5741 5740 5738 5737 5735 5733 5732 5730 5729 5727 5725 5723 5722 5720 5718 5717 5716 5714 5713 5712 5710 5710 5709 5709 5709 5709 5709 5709 5709 5709 5709 5709 5710 5710 5711 5711 5711 5711 5711
5746 5745 5744 5743 5741 5740 5739 5737 5735 5734 5732 5731 5729 5728 5726 5724 5723 5722 5720 5719 5718 5716 5715 5714 5713 5712 5712 5711 5711 5710 5710 5710 5710 5710 5710 5710 5710 5710 5710 5710 5710 5710 5710
5746 5745 5744 5743 5742 5740 5739 5737 5736 5734 5733 5732 5731 5730 5728 5727 5725 5724 5723 5722 5721 5719 5718 5717 5716 5715 5715 5714 5713 5713 5712 5712 5712 5711 5711 5711 5711 5711 5711 5710 5710 5709 5708
5747 5746 5745 5744 5743 5742 5740 5738 5737 5736 5735 5734 5733 5732 5730 5729 5728 5727 5726 5725 5724 5723 5722 5721 5720 5719 5717 5716 5716 5715 5715 5714 5714 5713 5713 5713 5712 5712 5711 5710 5710 5708 5707
5748 5747 5746 5745 5744 5743 5742 5740 5739 5738 5737 5736 5735 5734 5733 5732 5731 5730 5729 5728 5727 5726 5725 5724 5723 5722 5721 5720 5719 5718 5717 5716 5716 5715 5715 5714 5714 5713 5712 5711 5709 5708 5706
5749 5748 5748 5747 5746 5745 5743 5742 5741 5740 5739 5738 5738 5737 5736 5735 5734 5734 5733 5731 5730 5729 5728 5727 5726 5725 5724 5723 5722 5721 5720 5719 5718 5717 5717 5716 5715 5713 5712 5710 5709 5707 5705
5750 5750 5749 5748 5748 5747 5746 5745 5744 5743 5742 5741 5741 5740 5739 5738 5738 5737 5736 5735 5734 5733 5731 5730 5729 5728 5727 5726 5725 5724 5723 5722 5721 5720 5718 5717 5715 5714 5712 5710 5708 5706 5703
5752 5751 5750 5750 5749 5748 5748 5747 5746 5746 5745 5744 5744 5743 5742 5741 5741 5740 5739 5738 5737 5736 5735 5734 5733 5732 5730 5729 5728 5727 5725 5724 5723 5721 5720 5718 5716 5714 5712 5710 5707 5705 5702
5753 5753 5752 5751 5750 5750 5750 5749 5749 5748 5748 5747 5746 5746 5745 5744 5744 5743 5742 5741 5740 5739 5738 5737 5736 5735 5733 5732 5730 5729 5728 5726 5724 5723 5721 5719 5716 5714 5712 5709 5706 5703 5700
5754 5754 5753 5752 5752 5752 5751 5751 5750 5750 5749 5749 5749 5748 5747 5747 5746 5745 5744 5743 5742 5742 5740 5739 5738 5737 5735 5734 5732 5731 5729 5727 5725 5723 5721 5719 5716 5714 5711 5708 5705 5701 5698
5755 5755 5754 5754 5754 5753 5753 5752 5752 5752 5751 5751 5750 5750 5749 5748 5748 5747 5746 5745 5744 5743 5742 5741 5739 5738 5736 5735 5733 5731 5729 5727 5725 5723 5721 5718 5716 5713 5710 5706 5703 5699 5695
5756 5756 5755 5755 5755 5754 5754 5753 5753 5752 5752 5751 5751 5750 5750 5749 5749 5748 5747 5746 5745 5744 5743 5741 5740 5738 5737 5735 5733 5731 5729 5727 5724 5722 5719 5717 5714 5711 5707 5704 5700 5695 5691
5757 5757 5756 5756 5756 5755 5754 5754 5753 5753 5752 5752 5751 5751 5750 5750 5749 5748 5748 5747 5745 5744 5743 5741 5740 5738 5737 5734 5732 5730 5728 5725 5723 5720 5717 5715 5711 5708 5704 5700 5696 5691 5687
5758 5757 5757 5756 5756 5755 5755 5754 5753 5753 5752 5751 5751 5750 5750 5749 5748 5748 5747 5746 5745 5743 5742 5741 5739 5737 5735 5733 5731 5729 5726 5724 5721 5718 5715 5711 5708 5704 5700 5696 5692 5687 5682
5758 5757 5756 5756 5755 5754 5754 5753 5752 5752 5751 5750 5750 5749 5749 5748 5747 5746 5745 5744 5743 5742 5740 5739 5737 5735 5733 5731 5729 5726 5724 5721 5718 5714 5711 5707 5704 5700 5696 5691 5687 5681 5676